Curacao Island, Netherlands

2:32 PM AST on December 07, 2016 (GMT -0400)
Willemstad-Hato International

Weather History for TNCC - October, 2013

Change the Weather History Date:

Friday, October 4, 2013

  Actual Average Record
Temperature  
Mean Temperature 86 °F -  
Max Temperature 91 °F 88 °F 96 °F (2016)
Min Temperature 81 °F 81 °F 77 °F (1998)
Cooling Degree Days 21    
Growing Degree Days 36 (Base 50)    
Moisture  
Dew Point 76 °F    
Average Humidity 75    
Maximum Humidity 84    
Minimum Humidity 60    
Precipitation  
Precipitation 0.00 in - - ()
Sea Level Pressure  
Sea Level Pressure 29.87 in    
Wind  
Wind Speed 10 mph ()    
Max Wind Speed 16 mph    
Max Gust Speed -    
Visibility 7.7 miles    
Events      
Averages and records for this station are not official NWS values.
T = Trace of Precipitation, MM = Missing Value Source: Averaged Metar Reports

Daily Weather History Graph

Daily Weather History Graph

Search for Another Location

Airport or City:

Trip Planner

Search our weather history database for the weather conditions in past years. The results will help you decide how hot, cold, wet, or windy it might be!

Date:

Astronomy

Oct. 04, 2013 Rise Set
Actual Time 6:25 AM AST 6:23 PM AST
Civil Twilight 6:03 AM AST 6:44 PM AST
Nautical Twilight 5:39 AM AST 7:09 PM AST
Astronomical Twilight 5:14 AM AST 7:34 PM AST
Moon 5:56 AM AST (10/4) 6:09 PM AST (10/4)
Length of Visible Light 12h 41m
Length of Day
11h 58m
Waning Crescent, 0% of the Moon is Illuminated
Oct 4
Waning Crescent
Oct 4
New
Oct 11
First Quarter
Oct 18
Full
Oct 26
Last Quarter

Hourly Weather History & Observations

Time (AST) Temp. Heat Index Dew Point Humidity Pressure Visibility Wind Dir Wind Speed Gust Speed Precip Events Conditions
1:00 AM 82.4 °F 90.9 °F 77.0 °F 84% 29.86 in 6.2 mi ESE 12.7 mph - N/A   Scattered Clouds
2:00 AM 82 °F - 76 °F 79% 29.87 in 25 mi SE 8.1 mph - -   Scattered Clouds
2:00 AM 82.4 °F 90.9 °F 77.0 °F 84% 29.86 in 6.2 mi ESE 9.2 mph - N/A   Scattered Clouds
3:00 AM 82.4 °F 90.9 °F 77.0 °F 84% 29.83 in 6.2 mi ESE 11.5 mph - N/A   Partly Cloudy
4:00 AM 82.4 °F 90.9 °F 77.0 °F 84% 29.83 in 6.2 mi ESE 11.5 mph - N/A   Partly Cloudy
5:00 AM 83 °F - 76 °F 74% 29.84 in 25 mi ESE 11.5 mph - -   Scattered Clouds
5:00 AM 84.2 °F 92.3 °F 75.2 °F 74% 29.89 in 6.2 mi East 13.8 mph - N/A   Scattered Clouds
6:00 AM 84.2 °F 92.3 °F 75.2 °F 74% 29.89 in 6.2 mi East 13.8 mph - N/A   Scattered Clouds
8:00 AM 86 °F - 76 °F 66% 29.91 in 25 mi ESE 12.7 mph - -   Partly Cloudy
8:00 AM 86.0 °F 96.9 °F 77.0 °F 74% 29.89 in 6.2 mi ESE 12.7 mph - N/A   Scattered Clouds
9:00 AM 86.0 °F 96.9 °F 77.0 °F 74% 29.92 in 6.2 mi East 12.7 mph - N/A   Scattered Clouds
10:00 AM 87.8 °F 99.7 °F 77.0 °F 70% 29.92 in 6.2 mi East 12.7 mph - N/A   Scattered Clouds
11:00 AM 89 °F - 77 °F 60% 29.93 in 25 mi East 15.0 mph - -   Partly Cloudy
11:00 AM 87.8 °F 99.7 °F 77.0 °F 70% 29.92 in 6.2 mi East 15.0 mph - N/A   Scattered Clouds
12:00 PM 89.6 °F 99.8 °F 75.2 °F 62% 29.89 in 6.2 mi ESE 16.1 mph - N/A   Scattered Clouds
1:00 PM 87.8 °F 97.6 °F 75.2 °F 66% 29.89 in 6.2 mi ESE 13.8 mph - N/A   Scattered Clouds
2:00 PM 87 °F - 76 °F 63% 29.86 in 25 mi ESE 9.2 mph - -   Partly Cloudy
2:00 PM 86.0 °F 95.1 °F 75.2 °F 70% 29.86 in 6.2 mi ESE 13.8 mph - N/A   Scattered Clouds
3:00 PM 86.0 °F 96.9 °F 77.0 °F 74% 29.83 in 6.2 mi ESE 11.5 mph - N/A   Scattered Clouds
4:00 PM 86.0 °F 95.1 °F 75.2 °F 70% 29.83 in 6.2 mi ESE 10.4 mph - N/A   Partly Cloudy
5:00 PM 85 °F - 76 °F 69% 29.83 in 19 mi SE 5.8 mph - -   Scattered Clouds
5:00 PM 84.2 °F 94.1 °F 77.0 °F 79% 29.83 in 6.2 mi ESE 9.2 mph - N/A   Partly Cloudy
6:00 PM 84.2 °F 94.1 °F 77.0 °F 79% 29.83 in 6.2 mi ESE 8.1 mph - N/A   Partly Cloudy
7:00 PM 82.4 °F 90.9 °F 77.0 °F 84% 29.83 in 6.2 mi ESE 8.1 mph - N/A   Partly Cloudy
8:00 PM 82 °F - 77 °F 79% 29.86 in 19 mi ESE 5.8 mph - -   Scattered Clouds
8:00 PM 82.4 °F 90.9 °F 77.0 °F 84% 29.86 in 6.2 mi ESE 6.9 mph - N/A   Partly Cloudy
9:00 PM 82.4 °F 90.9 °F 77.0 °F 84% 29.89 in 6.2 mi ESE 6.9 mph - N/A   Partly Cloudy
10:00 PM 82.4 °F 90.9 °F 77.0 °F 84% 29.92 in 6.2 mi ESE 6.9 mph - N/A   Partly Cloudy
11:00 PM 82 °F - 77 °F 80% 29.93 in 19 mi ESE 6.9 mph - -   Partly Cloudy
11:00 PM 82.4 °F 90.9 °F 77.0 °F 84% 29.92 in 6.2 mi ESE 6.9 mph - N/A   Partly Cloudy